AL YAH 3 (43174 NORAD) Tracking and Keplerian Element Data

This shows tracking and keplerian element data for the satellite.

Feedback or suggestion? Click here.




ElementValue
Catalog43174
NameAL YAH 3
Epoch Orbit463
Epoch Day111.37570823
Epoch Year2019
RAAN270.1335
Inclination0.0209
Eccentricity0.0002163
Argument of Perigee124.0707
Mean Anonmoly290.1057
Mean Motion1.00271329
Decay Rate-1.73E-06
L11 43174U 18012A 19111.37570823 -.00000173 00000-0 00000+0 0 9990
L22 43174 0.0209 270.1335 0002163 124.0707 290.1057 1.00271329 4638

Live tracking and technical data element details for AL YAH 3 (NORAD 43174). AL YAH 3 can be tracked NOW for your location showing map with azimuth and elevation plus other details from your city location.

Track the satellite on the map from your city or location and see movement details for azimuth, elevation, latitude, longitude, range, height, and movement on the map or in text.







IsCatalogInMostPopularTable: catalog: 43174, numindb: 338
Update: records affected: 1



GetName: 43174 AL YAH 3

Hit Count: updated at: Tue, 23 Apr 2019 01:55:41 GMT